Year,Month,Day,Hour,Minute,Value (Times are PST for temperature in C)
2013,07,14,00,00,13.90
2013,07,14,00,01,13.80
2013,07,14,00,02,13.80
2013,07,14,00,03,13.80
2013,07,14,00,04,13.80
2013,07,14,00,05,13.80
2013,07,14,00,06,13.80
2013,07,14,00,07,13.80
2013,07,14,00,08,13.80
2013,07,14,00,09,13.80
2013,07,14,00,10,13.80
2013,07,14,00,11,13.80
2013,07,14,00,12,13.80
2013,07,14,00,13,13.80
2013,07,14,00,14,13.80
2013,07,14,00,15,13.80
2013,07,14,00,16,13.80
2013,07,14,00,17,13.80
2013,07,14,00,18,13.80
2013,07,14,00,19,13.80
2013,07,14,00,20,13.80
2013,07,14,00,21,13.80
2013,07,14,00,22,13.80
2013,07,14,00,23,13.80
2013,07,14,00,24,13.80
2013,07,14,00,25,13.80
2013,07,14,00,26,13.80
2013,07,14,00,27,13.80
2013,07,14,00,28,13.80
2013,07,14,00,29,13.80
2013,07,14,00,30,13.80
2013,07,14,00,31,13.80
2013,07,14,00,32,13.80
2013,07,14,00,33,13.70
2013,07,14,00,34,13.70
2013,07,14,00,35,13.70
2013,07,14,00,36,13.70
2013,07,14,00,37,13.70
2013,07,14,00,38,13.70
2013,07,14,00,39,13.60
2013,07,14,00,40,13.60
2013,07,14,00,41,13.50
2013,07,14,00,42,13.40
2013,07,14,00,43,13.40
2013,07,14,00,44,13.30
2013,07,14,00,45,13.30
2013,07,14,00,46,13.30
2013,07,14,00,47,13.20
2013,07,14,00,48,13.20
2013,07,14,00,49,13.20
2013,07,14,00,50,13.20
2013,07,14,00,51,13.10
2013,07,14,00,52,13.10
2013,07,14,00,53,13.10
2013,07,14,00,54,13.10
2013,07,14,00,55,13.10
2013,07,14,00,56,13.10
2013,07,14,00,57,13.10
2013,07,14,00,58,13.10
2013,07,14,00,59,13.10
2013,07,14,01,00,13.10
2013,07,14,01,01,13.10
2013,07,14,01,02,13.10
2013,07,14,01,03,13.10
2013,07,14,01,04,13.10
2013,07,14,01,05,13.10
2013,07,14,01,06,13.10
2013,07,14,01,07,13.10
2013,07,14,01,08,13.10
2013,07,14,01,09,13.10
2013,07,14,01,10,13.10
2013,07,14,01,11,13.10
2013,07,14,01,12,13.10
2013,07,14,01,13,13.10
2013,07,14,01,14,13.00
2013,07,14,01,15,13.00
2013,07,14,01,16,13.00
2013,07,14,01,17,12.90
2013,07,14,01,18,12.90
2013,07,14,01,19,12.90
2013,07,14,01,20,12.80
2013,07,14,01,21,12.80
2013,07,14,01,22,12.80
2013,07,14,01,23,12.70
2013,07,14,01,24,12.70
2013,07,14,01,25,12.70
2013,07,14,01,26,12.60
2013,07,14,01,27,12.60
2013,07,14,01,28,12.50
2013,07,14,01,29,12.50
2013,07,14,01,30,12.40
2013,07,14,01,31,12.40
2013,07,14,01,32,12.40
2013,07,14,01,33,12.30
2013,07,14,01,34,12.30
2013,07,14,01,35,12.30
2013,07,14,01,36,12.30
2013,07,14,01,37,12.30
2013,07,14,01,38,12.30
2013,07,14,01,39,12.30
2013,07,14,01,40,12.30
2013,07,14,01,41,12.30
2013,07,14,01,42,12.30
2013,07,14,01,43,12.30
2013,07,14,01,44,12.30
2013,07,14,01,45,12.30
2013,07,14,01,46,12.30
2013,07,14,01,47,12.30
2013,07,14,01,48,12.30
2013,07,14,01,49,12.30
2013,07,14,01,50,12.30
2013,07,14,01,51,12.30
2013,07,14,01,52,12.30
2013,07,14,01,53,12.30
2013,07,14,01,54,12.30
2013,07,14,01,55,12.30
2013,07,14,01,56,12.30
2013,07,14,01,57,12.20
2013,07,14,01,58,12.20
2013,07,14,01,59,12.20
2013,07,14,02,00,12.20
2013,07,14,02,01,12.20
2013,07,14,02,02,12.20
2013,07,14,02,03,12.10
2013,07,14,02,04,12.10
2013,07,14,02,05,12.10
2013,07,14,02,06,12.20
2013,07,14,02,07,12.20
2013,07,14,02,08,12.20
2013,07,14,02,09,12.20
2013,07,14,02,10,12.20
2013,07,14,02,11,12.10
2013,07,14,02,12,12.10
2013,07,14,02,13,12.10
2013,07,14,02,14,12.00
2013,07,14,02,15,12.00
2013,07,14,02,16,11.90
2013,07,14,02,17,11.90
2013,07,14,02,18,11.90
2013,07,14,02,19,11.80
2013,07,14,02,20,11.80
2013,07,14,02,21,11.80
2013,07,14,02,22,11.80
2013,07,14,02,23,11.70
2013,07,14,02,24,11.70
2013,07,14,02,25,11.70
2013,07,14,02,26,11.60
2013,07,14,02,27,11.60
2013,07,14,02,28,11.60
2013,07,14,02,29,11.50
2013,07,14,02,30,11.50
2013,07,14,02,31,11.50
2013,07,14,02,32,11.50
2013,07,14,02,33,11.40
2013,07,14,02,34,11.40
2013,07,14,02,35,11.40
2013,07,14,02,36,11.40
2013,07,14,02,37,11.40
2013,07,14,02,38,11.30
2013,07,14,02,39,11.30
2013,07,14,02,40,11.30
2013,07,14,02,41,11.30
2013,07,14,02,42,11.20
2013,07,14,02,43,11.20
2013,07,14,02,44,11.20
2013,07,14,02,45,11.20
2013,07,14,02,46,11.20
2013,07,14,02,47,11.20
2013,07,14,02,48,11.20
2013,07,14,02,49,11.20
2013,07,14,02,50,11.20
2013,07,14,02,51,11.10
2013,07,14,02,52,11.10
2013,07,14,02,53,11.10
2013,07,14,02,54,11.10
2013,07,14,02,55,11.10
2013,07,14,02,56,11.10
2013,07,14,02,57,11.10
2013,07,14,02,58,11.10
2013,07,14,02,59,11.10
2013,07,14,03,00,11.10
2013,07,14,03,01,11.10
2013,07,14,03,02,11.10
2013,07,14,03,03,11.10
2013,07,14,03,04,11.10
2013,07,14,03,05,11.10
2013,07,14,03,06,11.10
2013,07,14,03,07,11.10
2013,07,14,03,08,11.10
2013,07,14,03,09,11.10
2013,07,14,03,10,11.10
2013,07,14,03,11,11.10
2013,07,14,03,12,11.10
2013,07,14,03,13,11.00
2013,07,14,03,14,11.00
2013,07,14,03,15,11.00
2013,07,14,03,16,11.00
2013,07,14,03,17,10.90
2013,07,14,03,18,10.90
2013,07,14,03,19,10.90
2013,07,14,03,20,10.90
2013,07,14,03,21,10.90
2013,07,14,03,22,10.80
2013,07,14,03,23,10.80
2013,07,14,03,24,10.80
2013,07,14,03,25,10.80
2013,07,14,03,26,10.70
2013,07,14,03,27,10.70
2013,07,14,03,28,10.70
2013,07,14,03,29,10.60
2013,07,14,03,30,10.60
2013,07,14,03,31,10.60
2013,07,14,03,32,10.60
2013,07,14,03,33,10.50
2013,07,14,03,34,10.50
2013,07,14,03,35,10.50
2013,07,14,03,36,10.40
2013,07,14,03,37,10.40
2013,07,14,03,38,10.40
2013,07,14,03,39,10.40
2013,07,14,03,40,10.40
2013,07,14,03,41,10.40
2013,07,14,03,42,10.40
2013,07,14,03,43,10.40
2013,07,14,03,44,10.30
2013,07,14,03,45,10.30
2013,07,14,03,46,10.30
2013,07,14,03,47,10.30
2013,07,14,03,48,10.30
2013,07,14,03,49,10.30
2013,07,14,03,50,10.30
2013,07,14,03,51,10.20
2013,07,14,03,52,10.20
2013,07,14,03,53,10.20
2013,07,14,03,54,10.20
2013,07,14,03,55,10.20
2013,07,14,03,56,10.20
2013,07,14,03,57,10.20
2013,07,14,03,58,10.20
2013,07,14,03,59,10.20
2013,07,14,04,00,10.10
2013,07,14,04,01,10.10
2013,07,14,04,02,10.10
2013,07,14,04,03,10.10
2013,07,14,04,04,10.10
2013,07,14,04,05,10.10
2013,07,14,04,06,10.10
2013,07,14,04,07,10.00
2013,07,14,04,08,10.00
2013,07,14,04,09,10.00
2013,07,14,04,10,10.00
2013,07,14,04,11,9.90
2013,07,14,04,12,9.90
2013,07,14,04,13,9.90
2013,07,14,04,14,9.90
2013,07,14,04,15,9.90
2013,07,14,04,16,9.80
2013,07,14,04,17,9.80
2013,07,14,04,18,9.80
2013,07,14,04,19,9.80
2013,07,14,04,20,9.80
2013,07,14,04,21,9.70
2013,07,14,04,22,9.70
2013,07,14,04,23,9.70
2013,07,14,04,24,9.70
2013,07,14,04,25,9.70
2013,07,14,04,26,9.70
2013,07,14,04,27,9.70
2013,07,14,04,28,9.70
2013,07,14,04,29,9.70
2013,07,14,04,30,9.70
2013,07,14,04,31,9.70
2013,07,14,04,32,9.70
2013,07,14,04,33,9.70
2013,07,14,04,34,9.70
2013,07,14,04,35,9.70
2013,07,14,04,36,9.80
2013,07,14,04,37,9.80
2013,07,14,04,38,9.80
2013,07,14,04,39,9.80
2013,07,14,04,40,9.80
2013,07,14,04,41,9.80
2013,07,14,04,42,9.70
2013,07,14,04,43,9.70
2013,07,14,04,44,9.70
2013,07,14,04,45,9.70
2013,07,14,04,46,9.70
2013,07,14,04,47,9.60
2013,07,14,04,48,9.60
2013,07,14,04,49,9.60
2013,07,14,04,50,9.60
2013,07,14,04,51,9.60
2013,07,14,04,52,9.60
2013,07,14,04,53,9.60
2013,07,14,04,54,9.50
2013,07,14,04,55,9.50
2013,07,14,04,56,9.50
2013,07,14,04,57,9.40
2013,07,14,04,58,9.40
2013,07,14,04,59,9.40
2013,07,14,05,00,9.40
2013,07,14,05,01,9.40
2013,07,14,05,02,9.40
2013,07,14,05,03,9.40
2013,07,14,05,04,9.40
2013,07,14,05,05,9.40
2013,07,14,05,06,9.30
2013,07,14,05,07,9.30
2013,07,14,05,08,9.30
2013,07,14,05,09,9.30
2013,07,14,05,10,9.20
2013,07,14,05,11,9.20
2013,07,14,05,12,9.20
2013,07,14,05,13,9.20
2013,07,14,05,14,9.10
2013,07,14,05,15,9.10
2013,07,14,05,16,9.10
2013,07,14,05,17,9.10
2013,07,14,05,18,9.10
2013,07,14,05,19,9.00
2013,07,14,05,20,9.00
2013,07,14,05,21,9.00
2013,07,14,05,22,9.00
2013,07,14,05,23,9.00
2013,07,14,05,24,9.00
2013,07,14,05,25,9.00
2013,07,14,05,26,9.00
2013,07,14,05,27,9.00
2013,07,14,05,28,9.00
2013,07,14,05,29,9.00
2013,07,14,05,30,9.00
2013,07,14,05,31,9.00
2013,07,14,05,32,9.00
2013,07,14,05,33,9.10
2013,07,14,05,34,9.10
2013,07,14,05,35,9.10
2013,07,14,05,36,9.10
2013,07,14,05,37,9.10
2013,07,14,05,38,9.10
2013,07,14,05,39,9.10
2013,07,14,05,40,9.10
2013,07,14,05,41,9.10
2013,07,14,05,42,9.10
2013,07,14,05,43,9.00
2013,07,14,05,44,9.00
2013,07,14,05,45,9.00
2013,07,14,05,46,9.10
2013,07,14,05,47,9.10
2013,07,14,05,48,9.10
2013,07,14,05,49,9.20
2013,07,14,05,50,9.20
2013,07,14,05,51,9.20
2013,07,14,05,52,9.20
2013,07,14,05,53,9.30
2013,07,14,05,54,9.20
2013,07,14,05,55,9.20
2013,07,14,05,56,9.20
2013,07,14,05,57,9.20
2013,07,14,05,58,9.20
2013,07,14,05,59,9.20
2013,07,14,06,00,9.10
2013,07,14,06,01,9.10
2013,07,14,06,02,9.10
2013,07,14,06,03,9.10
2013,07,14,06,04,9.10
2013,07,14,06,05,9.10
2013,07,14,06,06,9.10
2013,07,14,06,07,9.00
2013,07,14,06,08,9.00
2013,07,14,06,09,9.00
2013,07,14,06,10,9.00
2013,07,14,06,11,9.00
2013,07,14,06,12,9.00
2013,07,14,06,13,8.90
2013,07,14,06,14,9.00
2013,07,14,06,15,9.00
2013,07,14,06,16,9.00
2013,07,14,06,17,9.00
2013,07,14,06,18,9.10
2013,07,14,06,19,9.10
2013,07,14,06,20,9.10
2013,07,14,06,21,9.10
2013,07,14,06,22,9.20
2013,07,14,06,23,9.20
2013,07,14,06,24,9.30
2013,07,14,06,25,9.30
2013,07,14,06,26,9.30
2013,07,14,06,27,9.40
2013,07,14,06,28,9.40
2013,07,14,06,29,9.50
2013,07,14,06,30,9.50
2013,07,14,06,31,9.60
2013,07,14,06,32,9.60
2013,07,14,06,33,9.70
2013,07,14,06,34,9.80
2013,07,14,06,35,9.80
2013,07,14,06,36,9.90
2013,07,14,06,37,9.90
2013,07,14,06,38,10.00
2013,07,14,06,39,10.00
2013,07,14,06,40,10.10
2013,07,14,06,41,10.10
2013,07,14,06,42,10.20
2013,07,14,06,43,10.20
2013,07,14,06,44,10.20
2013,07,14,06,45,10.20
2013,07,14,06,46,10.30
2013,07,14,06,47,10.30
2013,07,14,06,48,10.30
2013,07,14,06,49,10.30
2013,07,14,06,50,10.30
2013,07,14,06,51,10.40
2013,07,14,06,52,10.40
2013,07,14,06,53,10.50
2013,07,14,06,54,10.50
2013,07,14,06,55,10.60
2013,07,14,06,56,10.60
2013,07,14,06,57,10.70
2013,07,14,06,58,10.70
2013,07,14,06,59,10.80
2013,07,14,07,00,10.80
2013,07,14,07,01,10.80
2013,07,14,07,02,10.90
2013,07,14,07,03,11.00
2013,07,14,07,04,11.00
2013,07,14,07,05,11.10
2013,07,14,07,06,11.20
2013,07,14,07,07,11.20
2013,07,14,07,08,11.30
2013,07,14,07,09,11.40
2013,07,14,07,10,11.50
2013,07,14,07,11,11.60
2013,07,14,07,12,11.60
2013,07,14,07,13,11.70
2013,07,14,07,14,11.80
2013,07,14,07,15,11.90
2013,07,14,07,16,12.00
2013,07,14,07,17,12.10
2013,07,14,07,18,12.20
2013,07,14,07,19,12.40
2013,07,14,07,20,12.60
2013,07,14,07,21,12.70
2013,07,14,07,22,12.80
2013,07,14,07,23,12.90
2013,07,14,07,24,13.10
2013,07,14,07,25,13.20
2013,07,14,07,26,13.30
2013,07,14,07,27,13.40
2013,07,14,07,28,13.50
2013,07,14,07,29,13.70
2013,07,14,07,30,13.80
2013,07,14,07,31,13.90
2013,07,14,07,32,14.00
2013,07,14,07,33,14.00
2013,07,14,07,34,14.10
2013,07,14,07,35,14.20
2013,07,14,07,36,14.40
2013,07,14,07,37,14.50
2013,07,14,07,38,14.60
2013,07,14,07,39,14.80
2013,07,14,07,40,15.00
2013,07,14,07,41,15.00
2013,07,14,07,42,15.00
2013,07,14,07,43,15.00
2013,07,14,07,44,15.20
2013,07,14,07,45,15.30
2013,07,14,07,46,15.40
2013,07,14,07,47,15.50
2013,07,14,07,48,15.60
2013,07,14,07,49,15.70
2013,07,14,07,50,15.80
2013,07,14,07,51,15.90
2013,07,14,07,52,15.90
2013,07,14,07,53,16.00
2013,07,14,07,54,16.00
2013,07,14,07,55,16.10
2013,07,14,07,56,16.10
2013,07,14,07,57,16.20
2013,07,14,07,58,16.20
2013,07,14,07,59,16.20
2013,07,14,08,00,16.30
2013,07,14,08,01,16.30
2013,07,14,08,02,16.40
2013,07,14,08,03,16.40
2013,07,14,08,04,16.50
2013,07,14,08,05,16.50
2013,07,14,08,06,16.60
2013,07,14,08,07,16.70
2013,07,14,08,08,16.70
2013,07,14,08,09,16.80
2013,07,14,08,10,16.80
2013,07,14,08,11,16.80
2013,07,14,08,12,16.90
2013,07,14,08,13,17.00
2013,07,14,08,14,17.00
2013,07,14,08,15,17.10
2013,07,14,08,16,17.20
2013,07,14,08,17,17.20
2013,07,14,08,18,17.30
2013,07,14,08,19,17.30
2013,07,14,08,20,17.40
2013,07,14,08,21,17.40
2013,07,14,08,22,17.50
2013,07,14,08,23,17.60
2013,07,14,08,24,17.60
2013,07,14,08,25,17.60
2013,07,14,08,26,17.70
2013,07,14,08,27,17.70
2013,07,14,08,28,17.70
2013,07,14,08,29,17.80
2013,07,14,08,30,17.80
2013,07,14,08,31,17.90
2013,07,14,08,32,18.00
2013,07,14,08,33,18.20
2013,07,14,08,34,18.30
2013,07,14,08,35,18.40
2013,07,14,08,36,18.50
2013,07,14,08,37,18.60
2013,07,14,08,38,18.70
2013,07,14,08,39,18.80
2013,07,14,08,40,18.90
2013,07,14,08,41,18.90
2013,07,14,08,42,19.00
2013,07,14,08,43,19.00
2013,07,14,08,44,19.00
2013,07,14,08,45,18.90
2013,07,14,08,46,19.00
2013,07,14,08,47,19.00
2013,07,14,08,48,19.00
2013,07,14,08,49,19.10
2013,07,14,08,50,19.10
2013,07,14,08,51,19.10
2013,07,14,08,52,19.10
2013,07,14,08,53,19.10
2013,07,14,08,54,19.20
2013,07,14,08,55,19.20
2013,07,14,08,56,19.10
2013,07,14,08,57,19.10
2013,07,14,08,58,19.10
2013,07,14,08,59,19.10
2013,07,14,09,00,19.10
2013,07,14,09,01,19.10
2013,07,14,09,02,19.10
2013,07,14,09,03,19.10
2013,07,14,09,04,19.20
2013,07,14,09,05,19.20
2013,07,14,09,06,19.30
2013,07,14,09,07,19.30
2013,07,14,09,08,19.40
2013,07,14,09,09,19.40
2013,07,14,09,10,19.30
2013,07,14,09,11,19.30
2013,07,14,09,12,19.30
2013,07,14,09,13,19.20
2013,07,14,09,14,19.20
2013,07,14,09,15,19.20
2013,07,14,09,16,19.20
2013,07,14,09,17,19.30
2013,07,14,09,18,19.30
2013,07,14,09,19,19.30
2013,07,14,09,20,19.40
2013,07,14,09,21,19.40
2013,07,14,09,22,19.50
2013,07,14,09,23,19.50
2013,07,14,09,24,19.60
2013,07,14,09,25,19.60
2013,07,14,09,26,19.60
2013,07,14,09,27,19.50
2013,07,14,09,28,19.50
2013,07,14,09,29,19.40
2013,07,14,09,30,19.50
2013,07,14,09,31,19.40
2013,07,14,09,32,19.40
2013,07,14,09,33,19.40
2013,07,14,09,34,19.40
2013,07,14,09,35,19.40
2013,07,14,09,36,19.40
2013,07,14,09,37,19.40
2013,07,14,09,38,19.40
2013,07,14,09,39,19.40
2013,07,14,09,40,19.40
2013,07,14,09,41,19.30
2013,07,14,09,42,19.30
2013,07,14,09,43,19.30
2013,07,14,09,44,19.20
2013,07,14,09,45,19.20
2013,07,14,09,46,19.30
2013,07,14,09,47,19.40
2013,07,14,09,48,19.40
2013,07,14,09,49,19.50
2013,07,14,09,50,19.50
2013,07,14,09,51,19.50
2013,07,14,09,52,19.60
2013,07,14,09,53,19.70
2013,07,14,09,54,19.80
2013,07,14,09,55,19.90
2013,07,14,09,56,20.00
2013,07,14,09,57,20.00
2013,07,14,09,58,19.90
2013,07,14,09,59,20.00
2013,07,14,10,00,20.00
2013,07,14,10,01,20.00
2013,07,14,10,02,19.80
2013,07,14,10,03,19.70
2013,07,14,10,04,19.60
2013,07,14,10,05,19.60
2013,07,14,10,06,19.60
2013,07,14,10,07,19.50
2013,07,14,10,08,19.50
2013,07,14,10,09,19.50
2013,07,14,10,10,19.60
2013,07,14,10,11,19.70
2013,07,14,10,12,19.70
2013,07,14,10,13,19.70
2013,07,14,10,14,19.70
2013,07,14,10,15,19.80
2013,07,14,10,16,19.80
2013,07,14,10,17,19.90
2013,07,14,10,18,19.90
2013,07,14,10,19,20.00
2013,07,14,10,20,20.10
2013,07,14,10,21,20.10
2013,07,14,10,22,20.10
2013,07,14,10,23,20.00
2013,07,14,10,24,19.90
2013,07,14,10,25,20.00
2013,07,14,10,26,20.00
2013,07,14,10,27,20.10
2013,07,14,10,28,20.20
2013,07,14,10,29,20.30
2013,07,14,10,30,20.30
2013,07,14,10,31,20.30
2013,07,14,10,32,20.30
2013,07,14,10,33,20.30
2013,07,14,10,34,20.40
2013,07,14,10,35,20.40
2013,07,14,10,36,20.40
2013,07,14,10,37,20.50
2013,07,14,10,38,20.60
2013,07,14,10,39,20.60
2013,07,14,10,40,20.60
2013,07,14,10,41,20.70
2013,07,14,10,42,20.80
2013,07,14,10,43,20.90
2013,07,14,10,44,20.90
2013,07,14,10,45,20.90
2013,07,14,10,46,20.80
2013,07,14,10,47,20.60
2013,07,14,10,48,20.50
2013,07,14,10,49,20.40
2013,07,14,10,50,20.50
2013,07,14,10,51,20.60
2013,07,14,10,52,20.60
2013,07,14,10,53,20.70
2013,07,14,10,54,20.60
2013,07,14,10,55,20.70
2013,07,14,10,56,20.80
2013,07,14,10,57,20.90
2013,07,14,10,58,21.00
2013,07,14,10,59,21.10
2013,07,14,11,00,21.10
2013,07,14,11,01,21.10
2013,07,14,11,02,21.10
2013,07,14,11,03,21.20
2013,07,14,11,04,21.30
2013,07,14,11,05,21.30
2013,07,14,11,06,21.40
2013,07,14,11,07,21.40
2013,07,14,11,08,21.30
2013,07,14,11,09,21.20
2013,07,14,11,10,21.20
2013,07,14,11,11,21.10
2013,07,14,11,12,20.90
2013,07,14,11,13,20.90
2013,07,14,11,14,20.80
2013,07,14,11,15,20.80
2013,07,14,11,16,20.90
2013,07,14,11,17,21.00
2013,07,14,11,18,21.10
2013,07,14,11,19,21.20
2013,07,14,11,20,21.30
2013,07,14,11,21,21.40
2013,07,14,11,22,21.30
2013,07,14,11,23,21.10
2013,07,14,11,24,21.10
2013,07,14,11,25,21.10
2013,07,14,11,26,21.10
2013,07,14,11,27,21.00
2013,07,14,11,28,20.90
2013,07,14,11,29,20.80
2013,07,14,11,30,20.80
2013,07,14,11,31,20.90
2013,07,14,11,32,21.00
2013,07,14,11,33,21.20
2013,07,14,11,34,21.20
2013,07,14,11,35,21.10
2013,07,14,11,36,21.00
2013,07,14,11,37,21.00
2013,07,14,11,38,20.90
2013,07,14,11,39,20.90
2013,07,14,11,40,20.90
2013,07,14,11,41,20.90
2013,07,14,11,42,21.00
2013,07,14,11,43,21.00
2013,07,14,11,44,21.10
2013,07,14,11,45,21.10
2013,07,14,11,46,21.10
2013,07,14,11,47,21.20
2013,07,14,11,48,21.20
2013,07,14,11,49,21.30
2013,07,14,11,50,21.30
2013,07,14,11,51,21.40
2013,07,14,11,52,21.40
2013,07,14,11,53,21.40
2013,07,14,11,54,21.40
2013,07,14,11,55,21.40
2013,07,14,11,56,21.50
2013,07,14,11,57,21.50
2013,07,14,11,58,21.60
2013,07,14,11,59,21.60
2013,07,14,12,00,21.60
2013,07,14,12,01,21.60
2013,07,14,12,02,21.70
2013,07,14,12,03,21.70
2013,07,14,12,04,21.70
2013,07,14,12,05,21.60
2013,07,14,12,06,21.60
2013,07,14,12,07,21.70
2013,07,14,12,08,21.80
2013,07,14,12,09,21.90
2013,07,14,12,10,22.00
2013,07,14,12,11,22.10
2013,07,14,12,12,22.10
2013,07,14,12,13,21.90
2013,07,14,12,14,21.90
2013,07,14,12,15,21.90
2013,07,14,12,16,21.90
2013,07,14,12,17,21.80
2013,07,14,12,18,21.80
2013,07,14,12,19,21.70
2013,07,14,12,20,21.80
2013,07,14,12,21,21.70
2013,07,14,12,22,21.60
2013,07,14,12,23,21.60
2013,07,14,12,24,21.60
2013,07,14,12,25,21.50
2013,07,14,12,26,21.40
2013,07,14,12,27,21.50
2013,07,14,12,28,21.50
2013,07,14,12,29,21.50
2013,07,14,12,30,21.70
2013,07,14,12,31,21.80
2013,07,14,12,32,21.80
2013,07,14,12,33,21.80
2013,07,14,12,34,21.80
2013,07,14,12,35,21.70
2013,07,14,12,36,21.80
2013,07,14,12,37,21.80
2013,07,14,12,38,21.80
2013,07,14,12,39,21.70
2013,07,14,12,40,21.70
2013,07,14,12,41,21.60
2013,07,14,12,42,21.50
2013,07,14,12,43,21.40
2013,07,14,12,44,21.40
2013,07,14,12,45,21.40
2013,07,14,12,46,21.40
2013,07,14,12,47,21.30
2013,07,14,12,48,21.30
2013,07,14,12,49,21.30
2013,07,14,12,50,21.30
2013,07,14,12,51,21.40
2013,07,14,12,52,21.60
2013,07,14,12,53,21.70
2013,07,14,12,54,21.80
2013,07,14,12,55,21.90
2013,07,14,12,56,21.90
2013,07,14,12,57,21.80
2013,07,14,12,58,21.70
2013,07,14,12,59,21.60
2013,07,14,13,00,21.60
2013,07,14,13,01,21.70
2013,07,14,13,02,21.70
2013,07,14,13,03,21.60
2013,07,14,13,04,21.50
2013,07,14,13,05,21.40
2013,07,14,13,06,21.40
2013,07,14,13,07,21.50
2013,07,14,13,08,21.40
2013,07,14,13,09,21.20
2013,07,14,13,10,21.20
2013,07,14,13,11,21.20
2013,07,14,13,12,21.10
2013,07,14,13,13,21.10
2013,07,14,13,14,21.00
2013,07,14,13,15,21.00
2013,07,14,13,16,21.00
2013,07,14,13,17,21.10
2013,07,14,13,18,21.30
2013,07,14,13,19,21.20
2013,07,14,13,20,21.20
2013,07,14,13,21,21.10
2013,07,14,13,22,21.10
2013,07,14,13,23,21.10
2013,07,14,13,24,21.00
2013,07,14,13,25,20.90
2013,07,14,13,26,21.00
2013,07,14,13,27,21.30
2013,07,14,13,28,21.30
2013,07,14,13,29,21.30
2013,07,14,13,30,21.20
2013,07,14,13,31,21.20
2013,07,14,13,32,21.40
2013,07,14,13,33,21.40
2013,07,14,13,34,21.50
2013,07,14,13,35,21.40
2013,07,14,13,36,21.40
2013,07,14,13,37,21.40
2013,07,14,13,38,21.50
2013,07,14,13,39,21.60
2013,07,14,13,40,21.60
2013,07,14,13,41,21.70
2013,07,14,13,42,21.80
2013,07,14,13,43,21.90
2013,07,14,13,44,21.90
2013,07,14,13,45,22.00
2013,07,14,13,46,21.90
2013,07,14,13,47,21.90
2013,07,14,13,48,22.00
2013,07,14,13,49,22.10
2013,07,14,13,50,22.10
2013,07,14,13,51,22.00
2013,07,14,13,52,21.70
2013,07,14,13,53,21.70
2013,07,14,13,54,21.70
2013,07,14,13,55,21.90
2013,07,14,13,56,22.00
2013,07,14,13,57,22.00
2013,07,14,13,58,21.90
2013,07,14,13,59,21.90
2013,07,14,14,00,21.70
2013,07,14,14,01,21.50
2013,07,14,14,02,21.30
2013,07,14,14,03,21.10
2013,07,14,14,04,20.90
2013,07,14,14,05,20.80
2013,07,14,14,06,20.70
2013,07,14,14,07,20.60
2013,07,14,14,08,20.50
2013,07,14,14,09,20.30
2013,07,14,14,10,20.20
2013,07,14,14,11,20.20
2013,07,14,14,12,20.20
2013,07,14,14,13,20.20
2013,07,14,14,14,20.20
2013,07,14,14,15,20.30
2013,07,14,14,16,20.30
2013,07,14,14,17,20.30
2013,07,14,14,18,20.20
2013,07,14,14,19,20.00
2013,07,14,14,20,19.90
2013,07,14,14,21,19.80
2013,07,14,14,22,19.50
2013,07,14,14,23,19.40
2013,07,14,14,24,19.40
2013,07,14,14,25,19.40
2013,07,14,14,26,19.40
2013,07,14,14,27,19.50
2013,07,14,14,28,19.50
2013,07,14,14,29,19.50
2013,07,14,14,30,19.40
2013,07,14,14,31,19.40
2013,07,14,14,32,19.40
2013,07,14,14,33,19.30
2013,07,14,14,34,19.20
2013,07,14,14,35,19.10
2013,07,14,14,36,19.20
2013,07,14,14,37,19.30
2013,07,14,14,38,19.40
2013,07,14,14,39,19.40
2013,07,14,14,40,19.20
2013,07,14,14,41,19.00
2013,07,14,14,42,18.80
2013,07,14,14,43,18.70
2013,07,14,14,44,18.60
2013,07,14,14,45,18.50
2013,07,14,14,46,18.40
2013,07,14,14,47,18.40
2013,07,14,14,48,18.40
2013,07,14,14,49,18.40
2013,07,14,14,50,18.50
2013,07,14,14,51,18.50
2013,07,14,14,52,18.40
2013,07,14,14,53,18.30
2013,07,14,14,54,18.30
2013,07,14,14,55,18.30
2013,07,14,14,56,18.40
2013,07,14,14,57,18.40
2013,07,14,14,58,18.40
2013,07,14,14,59,18.50
2013,07,14,15,00,18.40
2013,07,14,15,01,18.50
2013,07,14,15,02,18.60
2013,07,14,15,03,18.70
2013,07,14,15,04,18.70
2013,07,14,15,05,18.70
2013,07,14,15,06,18.80
2013,07,14,15,07,18.80
2013,07,14,15,08,18.70
2013,07,14,15,09,18.80
2013,07,14,15,10,18.70
2013,07,14,15,11,18.70
2013,07,14,15,12,18.70
2013,07,14,15,13,18.70
2013,07,14,15,14,18.70
2013,07,14,15,15,18.70
2013,07,14,15,16,18.70
2013,07,14,15,17,18.80
2013,07,14,15,18,18.90
2013,07,14,15,19,19.00
2013,07,14,15,20,19.10
2013,07,14,15,21,19.30
2013,07,14,15,22,19.40
2013,07,14,15,23,19.60
2013,07,14,15,24,19.50
2013,07,14,15,25,19.30
2013,07,14,15,26,19.20
2013,07,14,15,27,19.10
2013,07,14,15,28,18.90
2013,07,14,15,29,19.00
2013,07,14,15,30,19.10
2013,07,14,15,31,19.20
2013,07,14,15,32,19.30
2013,07,14,15,33,19.20
2013,07,14,15,34,19.10
2013,07,14,15,35,19.10
2013,07,14,15,36,18.90
2013,07,14,15,37,18.90
2013,07,14,15,38,19.00
2013,07,14,15,39,19.10
2013,07,14,15,40,19.30
2013,07,14,15,41,19.30
2013,07,14,15,42,19.30
2013,07,14,15,43,19.40
2013,07,14,15,44,19.30
2013,07,14,15,45,19.20
2013,07,14,15,46,19.00
2013,07,14,15,47,18.90
2013,07,14,15,48,19.10
2013,07,14,15,49,19.20
2013,07,14,15,50,19.20
2013,07,14,15,51,19.30
2013,07,14,15,52,19.50
2013,07,14,15,53,19.70
2013,07,14,15,54,19.80
2013,07,14,15,55,19.90
2013,07,14,15,56,20.00
2013,07,14,15,57,20.10
2013,07,14,15,58,20.20
2013,07,14,15,59,20.20
2013,07,14,16,00,20.20
2013,07,14,16,01,20.30
2013,07,14,16,02,20.40
2013,07,14,16,03,20.60
2013,07,14,16,04,20.80
2013,07,14,16,05,21.10
2013,07,14,16,06,21.40
2013,07,14,16,07,21.60
2013,07,14,16,08,21.80
2013,07,14,16,09,22.00
2013,07,14,16,10,22.10
2013,07,14,16,11,22.30
2013,07,14,16,12,22.50
2013,07,14,16,13,22.70
2013,07,14,16,14,22.90
2013,07,14,16,15,23.10
2013,07,14,16,16,23.50
2013,07,14,16,17,23.90
2013,07,14,16,18,24.20
2013,07,14,16,19,24.50
2013,07,14,16,20,24.90
2013,07,14,16,21,25.20
2013,07,14,16,22,25.50
2013,07,14,16,23,25.70
2013,07,14,16,24,25.90
2013,07,14,16,25,26.20
2013,07,14,16,26,26.30
2013,07,14,16,27,26.40
2013,07,14,16,28,26.40
2013,07,14,16,29,26.60
2013,07,14,16,30,26.70
2013,07,14,16,31,26.80
2013,07,14,16,32,26.70
2013,07,14,16,33,26.70
2013,07,14,16,34,26.60
2013,07,14,16,35,26.60
2013,07,14,16,36,26.70
2013,07,14,16,37,26.60
2013,07,14,16,38,26.60
2013,07,14,16,39,26.40
2013,07,14,16,40,26.30
2013,07,14,16,41,26.20
2013,07,14,16,42,26.20
2013,07,14,16,43,26.30
2013,07,14,16,44,26.30
2013,07,14,16,45,26.40
2013,07,14,16,46,26.50
2013,07,14,16,47,26.60
2013,07,14,16,48,26.60
2013,07,14,16,49,26.70
2013,07,14,16,50,26.80
2013,07,14,16,51,26.80
2013,07,14,16,52,26.80
2013,07,14,16,53,26.70
2013,07,14,16,54,26.70
2013,07,14,16,55,26.60
2013,07,14,16,56,26.60
2013,07,14,16,57,26.60
2013,07,14,16,58,26.70
2013,07,14,16,59,26.70
2013,07,14,17,00,26.70
2013,07,14,17,01,26.60
2013,07,14,17,02,26.60
2013,07,14,17,03,26.50
2013,07,14,17,04,26.40
2013,07,14,17,05,26.20
2013,07,14,17,06,26.20
2013,07,14,17,07,26.20
2013,07,14,17,08,26.20
2013,07,14,17,09,26.20
2013,07,14,17,10,26.20
2013,07,14,17,11,26.20
2013,07,14,17,12,26.20
2013,07,14,17,13,26.30
2013,07,14,17,14,26.20
2013,07,14,17,15,26.20
2013,07,14,17,16,26.30
2013,07,14,17,17,26.30
2013,07,14,17,18,26.30
2013,07,14,17,19,26.30
2013,07,14,17,20,26.30
2013,07,14,17,21,26.30
2013,07,14,17,22,26.30
2013,07,14,17,23,26.30
2013,07,14,17,24,26.40
2013,07,14,17,25,26.40